ONEWEB-0500, 54118

Orbit data source: Space-Track

ONEWEB-0500, 54118 is a payload satellite owned by One Web (NAA) (UK) in LEO that was launched on Sat, 22 Oct 2022 UTC via a LVM3 launch vehicle from the Sirharikota (SRI). Payload-class satellites include a variety of spacecraft equipped with specific instruments for various scientific and technological missions. These include communications satellites like Starlink; space stations such as the ISS; scientific satellites like the Hubble; Earth observation satellites from companies like Planet Labs, Umbra, and HawkEye 360; GPS; miniature CubeSats for education and research; and military/defense satellites.

Loading next visibility...
Identifier
54118, 2022-138F
Orbit
LEO
Country
Flag of UKUK
Related business
Manufacturer
One Web
Mission
Operational Commercial Communications
Bus & Motor
ARROW, Unknown motor
Mass
148 kg wet, ~140 kg dry
Launch date (UTC)
2022-10-22 (4 years ago)
Launch vehicle
LVM3
Launch site
Sirharikota (SRI)
Object type
Payload
Rocket body
Debris
Shape & HBR
Trap Box + 2 Pan, 6.7 m
Radar Cross Section
3.464 m², Large (>1 m²)

Expand to show TLE details & history
Last TLE update: 2 days ago

TLE from 2 days ago
0 ONEWEB-0500
1 54118U 22138F   26171.39628707  .00000139  00000-0  31573-3 0  9999
2 54118  87.9174 304.3265 0001998 100.6616 259.4742 13.19724849177250
Epoch: 2026-06-20T09:30Z
TLE epoch observation values (Epoch: 2026-06-20T09:30:39.202Z)
Latitude
-0.00002°
Longitude
-106.94835°
Altitude
1,188.949 km
Speed
7.259 km/s
True Right ascension
20h 17m 18s
True Declination
0° 00' 00"
Sunlit
Object was in full shadow at epoch
Visualization orbit readout
Latitude
Unknown
Longitude
Unknown
Altitude
Unknown
Speed
Unknown
Apparent Right ascension
Unknown
Apparent Declination
Unknown
Sunlit
N/A
Visualization observer readout
Local Sidereal Time
21:32:40
Azimuth
Unknown
Elevation
Unknown
Doppler factor
Unknown
Orbital elements
Apogee altitude
1,184.388 km
Perigee altitude
1,181.366 km
Semi-major axis
7,561.014 km
Eccentricity
0.0002
Inclination
87.9174°
RAAN
304.3265°
Arg. of periapsis
100.6616°
True anomaly
259.45169°
Mean anomaly
259.4742°
Eccentric anomaly
259.46295°
Mean motion
3.30121 °/min
Orbital period
109.05 mins
BSTAR
0.00031573
Loading maneuver chart data...
Computing Atmospheric mass density...
Loading historical data...
Loading historical data...
Loading historical data...
Loading historical data...
Loading historical data...
Loading historical data...
Loading historical data...

Documentation

Showing up to 5 results
|